Weather History for Willimantic, CT

Change the Weather History Date:

Thursday, May 29, 2014

  Actual Average Record
Temperature  
Mean Temperature 54 °F -  
Max Temperature 69 °F 74 °F 91 °F (2012)
Min Temperature 39 °F 46 °F 27 °F (1956)
Degree Days  
Heating Degree Days 12    
Growing Degree Days 4 (Base 50)    
Moisture  
Dew Point 42 °F    
Average Humidity 65    
Maximum Humidity 93    
Minimum Humidity 39    
Precipitation  
Precipitation 0.00 in - - ()
Sea Level Pressure  
Sea Level Pressure 30.20 in    
Wind  
Wind Speed 5 mph (NE)    
Max Wind Speed 13 mph    
Max Gust Speed -    
Visibility 10 miles    
Events      
Averages and records for this station are not official NWS values.
T = Trace of Precipitation, MM = Missing Value Source: NWS Daily Summary

Daily Weather History Graph

Daily Weather History Graph

Search for Another Location

Airport:

Trip Planner

Search our weather history database for the weather conditions in past years. The results will help you decide how hot, cold, wet, or windy it might be!

Date:

Astronomy

May. 29, 2014 Rise Set
Actual Time 5:18 AM EDT 8:14 PM EDT
Civil Twilight 4:44 AM EDT 8:47 PM EDT
Nautical Twilight 4:02 AM EDT 9:30 PM EDT
Astronomical Twilight 3:13 AM EDT 10:19 PM EDT
Moon 6:09 AM EDT (5/29) 9:01 PM EDT (5/29)
Length of Visible Light 16h 02m
Length of Day
14h 56m
New Moon, 1% of the Moon is Illuminated
May 29
New Moon
Jun 5
First Quarter
Jun 13
Full
Jun 19
Last Quarter
Jun 27
New

Hourly Weather History & Observations

Time (EDT) Temp. Windchill Dew Point Humidity Pressure Visibility Wind Dir Wind Speed Gust Speed Precip Events Conditions
12:00 AM 48.0 °F - 41.0 °F 77% 30.21 in 10.0 mi NE 9.2 mph - N/A   Scattered Clouds
12:52 AM 46.0 °F 42.5 °F 39.9 °F 79% 30.21 in 10.0 mi North 6.9 mph - N/A   Clear
1:52 AM 44.1 °F 41.5 °F 39.9 °F 85% 30.21 in 10.0 mi North 4.6 mph - N/A   Clear
2:52 AM 42.1 °F 40.2 °F 39.0 °F 89% 30.21 in 10.0 mi North 3.5 mph - N/A   Clear
4:52 AM 39.0 °F - 37.0 °F 93% 30.22 in 10.0 mi Calm Calm - N/A   Clear
5:52 AM 39.0 °F 36.8 °F 37.0 °F 93% 30.23 in 10.0 mi NNE 3.5 mph - N/A   Clear
6:52 AM 43.0 °F - 39.9 °F 89% 30.24 in 10.0 mi Calm Calm - N/A   Clear
7:52 AM 48.9 °F - 41.0 °F 74% 30.23 in 10.0 mi NNE 4.6 mph - N/A   Clear
8:52 AM 55.0 °F - 39.9 °F 57% 30.23 in 10.0 mi Variable 4.6 mph - N/A   Clear
9:52 AM 57.9 °F - 41.0 °F 53% 30.23 in 10.0 mi ENE 6.9 mph - N/A   Clear
10:52 AM 59.0 °F - 39.9 °F 49% 30.22 in 10.0 mi Variable 4.6 mph - N/A   Clear
11:52 AM 62.1 °F - 41.0 °F 46% 30.22 in 10.0 mi Calm Calm - N/A   Clear
12:52 PM 63.0 °F - 41.0 °F 45% 30.21 in 10.0 mi WNW 6.9 mph - N/A   Scattered Clouds
1:52 PM 64.9 °F - 42.1 °F 43% 30.19 in 10.0 mi NW 3.5 mph - N/A   Overcast
2:52 PM 66.9 °F - 41.0 °F 39% 30.18 in 10.0 mi Calm Calm - N/A   Partly Cloudy
3:52 PM 68.0 °F - 42.1 °F 39% 30.17 in 10.0 mi Variable 4.6 mph - N/A   Mostly Cloudy
4:52 PM 66.9 °F - 44.1 °F 44% 30.15 in 10.0 mi SSW 8.1 mph - N/A   Partly Cloudy
5:52 PM 64.0 °F - 45.0 °F 50% 30.14 in 10.0 mi SSE 12.7 mph - N/A   Clear
6:52 PM 61.0 °F - 45.0 °F 56% 30.15 in 10.0 mi South 10.4 mph - N/A   Clear
7:52 PM 57.9 °F - 44.1 °F 60% 30.17 in 10.0 mi South 8.1 mph - N/A   Clear
8:52 PM 55.0 °F - 44.1 °F 67% 30.17 in 10.0 mi SSE 4.6 mph - N/A   Clear
9:52 PM 52.0 °F - 44.1 °F 74% 30.18 in 10.0 mi SSE 3.5 mph - N/A   Clear
10:52 PM 50.0 °F - 45.0 °F 83% 30.19 in 10.0 mi Calm Calm - N/A   Clear
11:52 PM 48.9 °F - 45.0 °F 86% 30.17 in 10.0 mi Calm Calm - N/A   Clear